CZ-6A DEB

Satellite information

Favourite Embed

Satellite Type and Status

DEBRISIN ORBIT

Key statistics

Satellite CZ-6A DEB at a glance.

Uptime

968

Days in orbit

Revolutions

≈ 14.4

Per day

Orbit

SSO

Sun Synchronous Orbit

Inclination

98.6

Latest

Satellite identification and parameters

Extended collection of information and parameters for CZ-6A DEB.

Object identification

Identified? True

Debris? True

Object name: CZ-6A DEB

International designator: 2022-151X

Object number (NORAD): 54280

Object ID (CCSDS): 54280

Country: PEOPLES REPUBLIC OF CHINA (PRC)

Current information (Y/N): Y

RCS size: SMALL

Orbital parameters

Period: 100.209 minutes

Inclination: 98.6291 deg

SMA: 7146.584 km

Apoapsis: 826.925 km

Periapsis: 709.973 km

RAAN: 205.2174 deg

Eccentricy: 0.0081824

Argument of periapsis: 342.2051 deg

Mean anomaly: 17.6273 deg

Mean motion: 14.36994154 rev/day

Mean motion (dot): 0.00001821 rev/day2

B* drag term: 0.00060599 1/REarth

Two-line elements (TLE)

Creation date: July 5, 2025, 5:45 p.m.

Reference frame: TEME

Reference center: EARTH

Epoch: July 5, 2025, 12:06 p.m. UTC

TLE line 0: 0 CZ-6A DEB

TLE line 1: 1 54280U 22151X 25186.50485571 .00001821 00000-0 60599-3 0 9991

TLE line 2: 2 54280 98.6291 205.2174 0081824 342.2051 17.6273 14.36994154137842

Live tracking on map

Real-time ground track for satellite CZ-6A DEB.

In-orbit conjunctions

A list of the most updated potential collisions computed for object CZ-6A DEB.

Target Orbit TCA Probability of collision Miss distance Type
SL-16 DEB LEO 2025-04-03 21:42:03 0.0001415738 51.0 (m) DEBRIS
IRIDIUM 17 LEO 2025-02-25 19:20:20 0.01221906 41.0 (m) PAYLOAD

Associated space launch

Chinese satellite reported for atmospheric/ocean/environmental/spatial parameter research purposes, details TBD.

CZ-6A DEB was lifted into orbit during the mission ‘Long March 6A | Yunhai 3’, on board a Long March 6A space rocket.

The launch took place on Nov. 11, 2022, 10:52 p.m. from Launch Complex 9A.

For more information about the launch, click the button.

Launch to space Long March 6A | Yunhai 3
Long March 6A | Yunhai 3

Agency: N/A

Status: Launch Successful

Launch date: Nov. 11, 2022, 10:52 p.m. UTC

Rocket: Long March 6A

Launch pad: Launch Complex 9A

Location: Taiyuan Satellite Launch Center, People's Republic of China

...

Latest news about this satellite

There are no fresh news available about this satellite. Check back as we update our databases every day.


Newsletter sign-up

Weekly statistics, charts and insights to help you stay on top of the space industry.